Showing default

RAVAN, 41849

Orbit data source: Space-Track

RAVAN, 41849 is an American payload satellite in SSO that was launched on Fri, 11 Nov 2016 UTC via an ATLAS V 401 launch vehicle from the Air Force Western Test Range (AFWTR). Payload-class satellites include a variety of spacecraft equipped with specific instruments for various scientific and technological missions. These include communications satellites like Starlink; space stations such as the ISS; scientific satellites like the Hubble; Earth observation satellites from companies like Planet Labs, Umbra, and HawkEye 360; GPS; miniature CubeSats for education and research; and military/defense satellites.

Loading next visibility...
Identifier
41849, 2016-067B
Orbit
SSO
Country
Flag of USUS
Related business
Manufacturer
Blue Canyon
Mission
Operational Civil Tech/EO-Sci
Bus & Motor
CUBESAT 3U, Unknown motor
Mass
5 kg wet, 5 kg dry
Launch date (UTC)
2016-11-11 (9 years ago)
Launch vehicle
ATLAS V 401
Launch site
Air Force Western Test Range (AFWTR)
Object type
Payload
Rocket body
Debris
Shape & HBR
Box + 2 Pan, 0.1 m
Radar Cross Section
0.035 m², Small (<0.1 m²)

Expand to show TLE details & history
Last TLE update: 11 hours ago

TLE from 11 hours ago
0 RAVAN
1 41849U 16067B   26123.63596455  .00047572  00000-0  82437-3 0  9995
2 41849  97.9943   8.2047 0006850 144.0736 216.0975 15.50736517520786
Epoch: 2026-05-03T15:15Z
TLE epoch observation values (Epoch: 2026-05-03T15:15:47.337Z)
Latitude
-0.00007°
Longitude
-82.2792°
Altitude
421.45 km
Speed
7.656 km/s
True Right ascension
00h 32m 49s
True Declination
0° 00' 00"
Sunlit
Object was in daylight at epoch
Visualization orbit readout
Latitude
Unknown
Longitude
Unknown
Altitude
Unknown
Speed
Unknown
Apparent Right ascension
Unknown
Apparent Declination
Unknown
Sunlit
N/A
Visualization observer readout
Local Sidereal Time
10:24:51
Azimuth
Unknown
Elevation
Unknown
Doppler factor
Unknown
Orbital elements
Apogee altitude
416.177 km
Perigee altitude
406.875 km
Semi-major axis
6,789.663 km
Eccentricity
0.00069
Inclination
97.9943°
RAAN
8.2047°
Arg. of periapsis
144.0736°
True anomaly
216.05129°
Mean anomaly
216.0975°
Eccentric anomaly
216.07439°
Mean motion
3.87946 °/min
Orbital period
92.8 mins
BSTAR
0.00082437
Loading maneuver chart data...
Computing Atmospheric mass density...
Loading historical data...
Loading historical data...
Loading historical data...
Loading historical data...
Loading historical data...
Loading historical data...
Loading historical data...

Documentation

Showing up to 5 results
|